Simultaneous Nadir Overpasses (SNOs) Predictions

Prediction of SNOs between NPP and TERRA Satellite Orbit:

Table of predicted SNOs for the next 14.0 days since TLE Epoch: 9/2/2013
Index Date (NPP) Time (NPP) Lat,Lon (NPP) SZA (NPP ) Date (TERRA) Time (TERRA) Lat,Lon (TERRA) SZA (TERRA ) Distance(km) Time Diff (sec)
1 09/04/2013 18:22:56 -68.46, 82.76 118.57 09/04/2013 18:24:06 -68.44, 82.75 118.60 2.99 70
2 09/04/2013 19:13:40 68.32,-109.74 61.30 09/04/2013 19:13:33 68.33,-109.74 61.31 1.15 7
3 09/04/2013 20:04:18 -68.04, 57.94 118.97 09/04/2013 20:03:05 -68.11, 57.64 118.90 14.76 73
4 09/07/2013 10:39:53 -68.40,-161.39 117.63 09/07/2013 10:40:35 -68.42,-161.39 117.61 2.07 42
5 09/07/2013 11:30:37 68.26, 6.10 62.24 09/07/2013 11:30:03 68.25, 6.05 62.23 2.17 34
6 09/10/2013 02:06:17 68.95, 146.32 63.92 09/10/2013 02:07:27 68.84, 147.37 63.80 43.93 70
7 09/10/2013 02:56:49 -68.35, -45.55 116.68 09/10/2013 02:57:04 -68.34, -45.60 116.69 2.18 15
8 09/10/2013 03:47:33 68.20, 121.94 63.19 09/10/2013 03:46:31 68.23, 121.90 63.21 2.96 62
9 09/12/2013 18:23:06 68.47, -97.27 64.46 09/12/2013 18:24:02 68.47, -97.21 64.45 2.42 56
10 09/12/2013 19:13:46 -68.29, 70.29 115.72 09/12/2013 19:13:33 -68.31, 70.24 115.70 3.01 13
11 09/12/2013 20:04:19 67.56,-121.49 63.56 09/12/2013 20:03:10 67.63,-122.91 63.64 60.88 69
12 09/15/2013 10:40:03 68.42, 18.57 65.43 09/15/2013 10:40:31 68.42, 18.62 65.43 2.08 28
13 09/15/2013 11:30:44 -68.29,-173.95
